World > North America > United States > Nebraska

Holt County, Nebraska Regional Weather

Lat: 42.48N, Lon: 98.77W
Wx Zone: NEZ010Web Search
Holt County Weather Warning NWS WEATHER ALERT FOR THE HOLT COUNTY, NE AREA - Issued: 233 PM CDT Sat May 8 2021 Holt County Weather Warning  

Pass this page to a friend. Tell them to point their camera at the QR Code near the bottom of this page.

Feedback


°F Click to change Holt County hourly weather to Imperial units.Click to change Holt County hourly weather to Metric units. °C
Holt County Weather Map
UTC Time: 5/9/2021, 03:55
Your Time:

Holt County, NE Regional Weather

Expires:202105090400;;818408
ASUS43 KOAX 090310
RWRNE 

WEATHER ROUNDUP FOR NEBRASKA
NATIONAL WEATHER SERVICE OMAHA NE
1000 PM CDT SAT MAY 08 2021

NOTES: SATELLITE DATA IS BEING USED TO AUGMENT CLOUD COVER ABOVE
       12000 FEET.
       "FAIR" INDICATES FEW OR NO CLOUDS BELOW 12,000 FEET WITH NO
       SIGNIFICANT WEATHER AND/OR OBSTRUCTIONS TO VISIBILITY.

   

NEZ005>010-023>029-035>040-094-090400-
NORTH CENTRAL NEBRASKA
  
CITY           SKY/WX    TMP DP  RH WIND       PRES   REMARKS
VALENTINE      CLOUDY    43  39  86 NE13      29.95R FOG              
AINSWORTH      CLOUDY    40  38  93 NE9       29.94R FOG     WCI  34  
BROKEN BOW     CLOUDY    43  39  86 N13G24    29.88R                  
O'NEILL        CLOUDY    41  40  94 NE10      29.94R                  
ORD            CLOUDY    43  38  82 NE13      29.87R                  
$$
 

SKY/WX - Weather  TMP - Temperature  DP - Dew Point  RH - Relative Humidity
WIND - Wind Direction/Speed PRES - Barometric Pressure VSB - Visibility
WCI - Wind Chill Index E13G22 Wind - East Wind 13 mph/Gusts of 22 mph